• In Czech Republic
  • List of Countries
  • For 7 days
  • Water Temperature
  • Satellite Maps
  • Weather Map
  • Weather Widgets
  • user-avatar
    Login

    Hourly Weather Schoten

    Today, 22 September, Saturday

    Time Temperature Precipitation Wind Pressure Humidity
    00:00 +13°C° 0 mm 6 mps 762 mmHg 67%
    01:00 +12°C° 0 mm 5 mps 763 mmHg 69%
    02:00 +12°C° 0 mm 5 mps 763 mmHg 71%
    03:00 +12°C° 0 mm 4 mps 763 mmHg 73%
    04:00 +11°C° 0 mm 4 mps 763 mmHg 75%
    05:00 +11°C° 0 mm 4 mps 764 mmHg 77%
    06:00 +11°C° 0 mm 4 mps 764 mmHg 78%
    07:00 +12°C° 0 mm 5 mps 764 mmHg 73%
    08:00 +14°C° 0 mm 6 mps 764 mmHg 69%
    09:00 +15°C° 0 mm 6 mps 764 mmHg 64%
    10:00 +16°C° 0.1 mm 6 mps 764 mmHg 62%
    11:00 +16°C° 0.1 mm 7 mps 764 mmHg 60%
    12:00 +16°C° 0.1 mm 7 mps 763 mmHg 57%
    13:00 +16°C° 0.2 mm 6 mps 763 mmHg 61%
    14:00 +15°C° 0.2 mm 5 mps 763 mmHg 65%
    15:00 +14°C° 0.2 mm 5 mps 763 mmHg 69%
    16:00 +14°C° 0.3 mm 4 mps 763 mmHg 74%
    17:00 +13°C° 0.3 mm 4 mps 763 mmHg 79%
    18:00 +12°C° 0.3 mm 3 mps 763 mmHg 84%
    19:00 +12°C° 0.4 mm 3 mps 763 mmHg 86%
    20:00 +11°C° 0.4 mm 3 mps 763 mmHg 87%
    21:00 +11°C° 0.4 mm 3 mps 762 mmHg 89%
    22:00 +11°C° 0.4 mm 3 mps 762 mmHg 90%
    23:00 +12°C° 0.4 mm 2 mps 761 mmHg 90%

    Tomorrow, 23 September, Sunday

    Time Temperature Precipitation Wind Pressure Humidity
    00:00 +12°C° 0.4 mm 2 mps 760 mmHg 91%
    01:00 +12°C° 0.2 mm 2 mps 760 mmHg 91%
    02:00 +12°C° 0.2 mm 2 mps 759 mmHg 92%
    03:00 +12°C° 0.2 mm 2 mps 759 mmHg 92%
    04:00 +12°C° 0.1 mm 2 mps 759 mmHg 92%
    05:00 +12°C° 0.1 mm 1 mps 759 mmHg 92%
    06:00 +12°C° 0.1 mm 1 mps 758 mmHg 92%
    07:00 +12°C° 0.1 mm 2 mps 758 mmHg 91%
    08:00 +13°C° 0.1 mm 2 mps 758 mmHg 90%
    09:00 +12°C° 0.1 mm 3 mps 758 mmHg 88%
    10:00 +12°C° 3.5 mm 4 mps 757 mmHg 90%
    11:00 +10°C° 3.5 mm 6 mps 756 mmHg 91%
    12:00 +10°C° 3.5 mm 8 mps 756 mmHg 92%
    13:00 +10°C° 2.3 mm 7 mps 756 mmHg 91%
    14:00 +9°C° 2.3 mm 7 mps 756 mmHg 91%
    15:00 +9°C° 2.3 mm 7 mps 756 mmHg 90%
    16:00 +9°C° 1.1 mm 6 mps 758 mmHg 89%
    17:00 +8°C° 1.1 mm 6 mps 760 mmHg 89%
    18:00 +8°C° 1.1 mm 5 mps 761 mmHg 89%
    19:00 +9°C° 0.1 mm 5 mps 763 mmHg 87%
    20:00 +10°C° 0.1 mm 4 mps 764 mmHg 85%
    21:00 +10°C° 0.1 mm 4 mps 766 mmHg 83%
    22:00 +8°C° 0 mm 4 mps 767 mmHg 82%
    23:00 +8°C° 0 mm 4 mps 768 mmHg 81%

    Day after tomorrow, 24 September, Monday

    Time Temperature Precipitation Wind Pressure Humidity
    00:00 +8°C° 0 mm 4 mps 769 mmHg 81%
    01:00 +9°C° 0 mm 3 mps 770 mmHg 80%
    02:00 +9°C° 0 mm 3 mps 770 mmHg 80%
    03:00 +8°C° 0 mm 3 mps 771 mmHg 80%
    04:00 +8°C° 0 mm 2 mps 772 mmHg 80%
    05:00 +8°C° 0 mm 2 mps 772 mmHg 80%
    06:00 +8°C° 0 mm 2 mps 773 mmHg 79%
    07:00 +10°C° 0 mm 3 mps 774 mmHg 73%
    08:00 +12°C° 0 mm 3 mps 774 mmHg 67%
    09:00 +14°C° 0 mm 4 mps 774 mmHg 61%
    10:00 +14°C° 0.1 mm 4 mps 775 mmHg 59%
    11:00 +15°C° 0.1 mm 5 mps 775 mmHg 58%
    12:00 +15°C° 0.1 mm 6 mps 775 mmHg 56%
    13:00 +15°C° 0.1 mm 5 mps 775 mmHg 56%
    14:00 +15°C° 0.1 mm 5 mps 775 mmHg 56%
    15:00 +15°C° 0.1 mm 5 mps 775 mmHg 56%
    16:00 +13°C° 0 mm 4 mps 775 mmHg 61%
    17:00 +12°C° 0 mm 4 mps 776 mmHg 65%
    18:00 +11°C° 0 mm 3 mps 776 mmHg 70%
    19:00 +10°C° 0 mm 2 mps 777 mmHg 72%
    20:00 +9°C° 0 mm 2 mps 777 mmHg 74%
    21:00 +9°C° 0 mm 2 mps 778 mmHg 76%
    22:00 +9°C° 0 mm 1 mps 778 mmHg 78%
    23:00 +9°C° 0 mm 1 mps 778 mmHg 79%

    25 September, Tuesday

    Time Temperature Precipitation Wind Pressure Humidity
    00:00 +9°C° 0 mm 1 mps 778 mmHg 81%
    01:00 +8°C° 0 mm 1 mps 778 mmHg 82%
    02:00 +8°C° 0 mm 1 mps 778 mmHg 83%
    03:00 +8°C° 0 mm 1 mps 778 mmHg 84%
    04:00 +8°C° 0 mm 1 mps 778 mmHg 84%
    05:00 +7°C° 0 mm 1 mps 778 mmHg 84%
    06:00 +7°C° 0 mm 1 mps 778 mmHg 84%
    07:00 +9°C° 0 mm 1 mps 778 mmHg 76%
    08:00 +10°C° 0 mm 2 mps 778 mmHg 67%
    09:00 +13°C° 0 mm 2 mps 778 mmHg 59%
    10:00 +14°C° 0 mm 2 mps 778 mmHg 54%
    11:00 +15°C° 0 mm 2 mps 778 mmHg 50%
    12:00 +16°C° 0 mm 2 mps 778 mmHg 45%
    13:00 +16°C° 0 mm 2 mps 777 mmHg 45%
    14:00 +16°C° 0 mm 2 mps 777 mmHg 45%
    15:00 +16°C° 0 mm 2 mps 776 mmHg 45%
    16:00 +15°C° 0 mm 2 mps 776 mmHg 50%
    17:00 +13°C° 0 mm 2 mps 776 mmHg 55%
    18:00 +12°C° 0 mm 2 mps 776 mmHg 60%
    19:00 +10°C° 0 mm 2 mps 776 mmHg 62%
    20:00 +10°C° 0 mm 2 mps 776 mmHg 63%
    21:00 +9°C° 0 mm 2 mps 776 mmHg 65%
    22:00 +9°C° 0 mm 2 mps 776 mmHg 67%
    23:00 +8°C° 0 mm 2 mps 775 mmHg 69%

    26 September, Wednesday

    Time Temperature Precipitation Wind Pressure Humidity
    00:00 +8°C° 0 mm 2 mps 775 mmHg 71%
    01:00 +7°C° 0 mm 2 mps 775 mmHg 71%
    02:00 +7°C° 0 mm 2 mps 775 mmHg 72%
    03:00 +8°C° 0 mm 1 mps 774 mmHg 73%
    04:00 +8°C° 0 mm 1 mps 774 mmHg 72%
    05:00 +8°C° 0 mm 1 mps 774 mmHg 72%
    06:00 +7°C° 0 mm 1 mps 774 mmHg 72%
    07:00 +10°C° 0 mm 1 mps 774 mmHg 65%
    08:00 +12°C° 0 mm 1 mps 774 mmHg 58%
    09:00 +14°C° 0 mm 1 mps 774 mmHg 51%
    10:00 +15°C° 0 mm 1 mps 773 mmHg 47%
    11:00 +18°C° 0 mm 1 mps 773 mmHg 42%
    12:00 +19°C° 0 mm 1 mps 773 mmHg 38%
    13:00 +19°C° 0 mm 1 mps 772 mmHg 38%
    14:00 +20°C° 0 mm 1 mps 772 mmHg 37%
    15:00 +20°C° 0 mm 1 mps 771 mmHg 37%
    16:00 +18°C° 0 mm 1 mps 771 mmHg 41%
    17:00 +15°C° 0 mm 1 mps 771 mmHg 45%
    18:00 +12°C° 0 mm 0 mps 771 mmHg 50%
    19:00 +12°C° 0 mm 0 mps 771 mmHg 52%
    20:00 +12°C° 0 mm 1 mps 771 mmHg 53%
    21:00 +12°C° 0 mm 1 mps 771 mmHg 55%
    22:00 +12°C° 0 mm 1 mps 770 mmHg 56%
    23:00 +10°C° 0 mm 2 mps 770 mmHg 58%

    27 September, Thursday

    Time Temperature Precipitation Wind Pressure Humidity
    00:00 +10°C° 0 mm 2 mps 770 mmHg 59%
    01:00 +10°C° 0 mm 2 mps 769 mmHg 61%
    02:00 +9°C° 0 mm 2 mps 769 mmHg 62%
    03:00 +9°C° 0 mm 2 mps 769 mmHg 64%
    04:00 +9°C° 0 mm 3 mps 769 mmHg 65%
    05:00 +9°C° 0 mm 3 mps 768 mmHg 66%
    06:00 +8°C° 0 mm 3 mps 768 mmHg 67%
    07:00 +10°C° 0 mm 3 mps 768 mmHg 63%
    08:00 +12°C° 0 mm 4 mps 768 mmHg 59%
    09:00 +14°C° 0 mm 4 mps 768 mmHg 55%
    10:00 +17°C° 0 mm 4 mps 768 mmHg 53%
    11:00 +18°C° 0 mm 4 mps 768 mmHg 51%
    12:00 +20°C° 0 mm 5 mps 768 mmHg 49%
    13:00 +19°C° 0 mm 4 mps 768 mmHg 54%
    14:00 +19°C° 0 mm 4 mps 768 mmHg 58%
    15:00 +19°C° 0 mm 4 mps 768 mmHg 63%
    16:00 +18°C° 0.1 mm 3 mps 768 mmHg 70%
    17:00 +17°C° 0.1 mm 3 mps 768 mmHg 78%
    18:00 +16°C° 0.1 mm 2 mps 769 mmHg 85%
    19:00 +16°C° 0.1 mm 3 mps 769 mmHg 87%
    20:00 +14°C° 0.1 mm 3 mps 769 mmHg 88%
    21:00 +14°C° 0.1 mm 3 mps 770 mmHg 89%
    22:00 +13°C° 0.1 mm 3 mps 770 mmHg 88%
    23:00 +13°C° 0.1 mm 3 mps 770 mmHg 86%
    Show more